Location: Wingville
(42.9917°N, 90.4915°W)
Time: 02:16:33
(UTC+00:00)

CAS-4A - Visible Passes

Search period start: 02 July 2022 00:00
Search period end: 12 July 2022 00:00
Orbit: 523 x 536 km, 43.0° (Epoch: 01 July)

Date Brightness Start Highest point End Pass type
(mag) Time Alt. Az. Time Alt. Az. Time Alt. Az.
02 Jul ? 08:09:31 46° SSW 08:10:19 56° SSE 08:14:17 10° E visible
02 Jul ? 09:46:13 10° W 09:50:16 88° N 09:54:20 10° E visible
03 Jul ? 07:57:13 56° SSW 07:57:46 63° SSE 08:01:46 10° E visible
03 Jul ? 09:33:41 10° W 09:37:44 88° N 09:41:48 10° E visible
04 Jul ? 07:44:56 67° SSW 07:45:12 70° SSE 07:49:14 10° E visible
04 Jul ? 09:21:09 10° W 09:25:12 89° N 09:29:16 10° E visible
05 Jul ? 07:32:40 76° SSE 07:32:40 76° SSE 07:36:41 10° E visible
05 Jul ? 09:08:37 10° W 09:12:40 88° S 09:16:44 10° E visible
06 Jul ? 07:20:25 73° ESE 07:20:25 73° ESE 07:24:09 10° E visible
06 Jul ? 08:56:04 10° W 09:00:07 85° S 09:04:11 10° E visible
07 Jul ? 07:08:15 59° E 07:08:15 59° E 07:11:36 10° E visible
07 Jul ? 08:43:32 10° W 08:47:34 80° S 08:51:37 10° ESE visible
08 Jul ? 06:56:16 42° E 06:56:16 42° E 06:59:03 10° E visible
08 Jul ? 08:31:28 13° W 08:35:00 74° SSW 08:39:02 10° ESE visible
09 Jul ? 06:44:36 27° E 06:44:36 27° E 06:46:29 10° E visible
09 Jul ? 08:19:50 21° W 08:22:26 67° SSW 08:26:26 10° ESE visible
10 Jul ? 03:07:43 10° S 03:08:27 13° S 03:08:27 13° S visible
10 Jul ? 06:33:34 12° E 06:33:34 12° E 06:33:56 10° E visible
10 Jul ? 08:08:52 44° WSW 08:09:50 60° SSW 08:13:49 10° ESE visible
10 Jul ? 09:46:29 10° W 09:49:22 19° SW 09:52:14 10° SSE visible
11 Jul ? 02:54:43 10° SSW 02:57:47 21° SSE 02:59:31 16° ESE visible
11 Jul ? 04:33:22 10° WSW 04:34:53 22° WSW 04:34:53 22° WSW visible
11 Jul ? 07:59:03 28° SE 07:59:03 28° SE 08:01:11 10° ESE visible
11 Jul ? 09:34:27 11° WSW 09:36:41 16° SW 09:39:09 10° S visible
